Tracking 28335 objects as of 4-Dec-2023
HD Live streaming from Space Station
objects crossing your sky now

OPS 0054 (DMSP 5A F1)

Track OPS 0054 (DMSP 5A F1) now!
10-day predictions
OPS 0054 (DMSP 5A F1) is classified as:


NORAD ID: 4331
Int'l Code: 1970-012A
Perigee: 745.6 km
Apogee: 829.4 km
Inclination: 98.9 °
Period: 100.5 minutes
Semi major axis: 7158 km
RCS: 0.986 m2 (medium)
Launch date: February 11, 1970
Source: United States (US)
Launch site: AIR FORCE WESTERN TEST RANGE (AFWTR)
Your satellite tracking list
Your tracking list is empty




NASA's NSSDC Master Catalog

Two Line Element Set (TLE):
1 04331U 70012A   23337.39347261  .00000893  00000-0  33413-3 0  9991
2 04331  98.8998 106.6126 0058572 160.7415 199.6000 14.33402860804342
Source of the keplerian elements: AFSPC